Location: Alma
(38.7220°N, 88.9090°W)
Time: 02:47:44
(UTC-06:00)

Vanguard 2 Rocket - Pass Details

Date: 16 November 2019
Orbit: 554 x 3326 km, 32.9° (Epoch: 08 December)

Event Time Altitude Azimuth Distance (km) Brightness Sun altitude
Rises 05:52:32 0° 271° (W) 3,779 - -9.3°
Exits shadow 05:54:25 - 266° (W) 3,207 9.1 -9.0°
Reaches altitude 10° 05:54:50 10° 264° (W) 3,085 9.0 -8.9°
Maximum altitude 06:02:17 46° 194° (SSW) 2,155 8.8 -7.5°
Drops below altitude 10° 06:15:05 10° 128° (SE) 5,197 12.2 -5.1°
Sets 06:20:16 0° 124° (ESE) 6,604 13.4 -4.2°
